Location: Wyoming Skies Observatory
(43.6910°N, 108.3105°W)
Time: 14:45:36
(UTC-07:00)

Daily predictions for brighter satellites

Satellite Brightness Start Highest point End
(mag) Time Altitude Azimuth Time Altitude Azimuth Time Altitude Azimuth
NOSS 3-1 (A) 4.2 16:51:46 10° NW 16:59:22 86° SW 17:07:42 10° SSE
Cosmos 1125 Rocket 3.6 16:57:37 10° S 17:02:51 66° ESE 17:08:08 10° NNE
Thor Agena Rocket 4.2 17:00:25 10° NNE 17:05:13 37° E 17:10:02 10° SSE
Cosmos 2341 Rocket 4.0 17:01:20 10° N 17:07:32 66° E 17:13:42 10° SSE
Cosmos 1269 Rocket 4.0 17:02:17 10° NNW 17:07:37 81° ENE 17:12:56 10° SSE
Cosmos 1536 2.9 17:06:41 10° N 17:10:44 60° E 17:14:45 10° SSE
Cosmos 1606 3.9 17:07:08 10° SSW 17:10:55 45° WNW 17:14:43 10° N
IRS-1A Rocket 4.3 17:05:25 10° SSE 17:10:55 88° ENE 17:16:28 10° NNW
ATLAS 2AS CENTAUR R/B 3.3 17:03:30 10° NNW 17:11:22 48° NE 17:18:47 10° ESE
ASTEX 1 4.2 17:09:34 10° N 17:14:30 58° W 17:19:23 10° SSW
Cosmos 2251 Rocket 4.2 17:13:35 10° N 17:18:26 33° ENE 17:23:13 10° SE
ISS -2.5 17:15:46 10° SSW 17:18:52 38° SE 17:21:48 11° ENE
Cosmos 2263 Rocket 3.2 17:15:23 10° SW 17:20:44 45° WNW 17:26:09 10° NNE
Cosmos 1633 3.1 17:18:24 10° NNW 17:21:58 63° W 17:25:30 10° S
Meteor 1-11 Rocket 4.3 17:19:01 10° NNW 17:24:30 62° W 17:29:56 10° S
SL-27 R/B 3.1 17:24:12 10° N 17:27:36 35° ENE 17:30:58 10° SE
Cosmos 1812 3.8 17:28:57 10° SSE 17:32:09 26° E 17:35:23 10° NNE
Okean 1 Rocket 4.2 17:28:52 10° NNW 17:33:02 47° W 17:37:10 10° SSW
SJ-12 3.9 17:31:21 10° SSE 17:35:27 83° ENE 17:39:35 10° N
MSX 3.9 17:31:14 10° SE 17:36:49 55° ENE 17:42:25 10° N
CZ-4 R/B 1.6 17:33:28 10° S 17:37:39 78° WSW 17:41:50 10° NNW
COSMO-SKYMED 1 3.6 17:34:57 10° NE 17:38:37 26° E 17:42:16 10° SSE
Okean 3 4.0 17:34:38 10° SSW 17:38:54 61° W 17:43:08 10° N
Cosmos 1544 Rocket 3.7 17:35:04 10° N 17:39:26 52° ENE 17:43:48 10° SSE
Cosmos 158 Rocket 4.2 17:37:02 10° NNW 17:42:27 82° WSW 17:47:42 10° SSE
Cosmos 1975 Rocket 3.1 17:39:28 10° S 17:43:46 80° W 17:48:07 10° N
Cosmos 1844 Rocket 2.6 17:41:22 10° SSW 17:46:55 71° ESE 17:52:32 10° NNE
CZ-2C R/B 2.6 17:42:42 10° SSE 17:47:39 83° WSW 17:52:47 10° NNW
GEOS 3 Rocket 3.7 17:43:49 10° ESE 17:48:45 51° NE 17:53:43 10° NNW
Cosmos 1238 Rocket 2.4 17:48:18 10° SSE 17:51:09 43° E 17:53:00 18° NNE
Cosmos 1975 3.4 17:48:10 10° N 17:51:55 34° ENE 17:55:37 10° SE
Meteor 1-12 Rocket 4.4 17:48:27 10° N 17:54:06 55° ENE 17:59:51 10° SSE
Cosmos 1844 3.6 17:51:55 10° S 17:57:24 65° ESE 18:02:20 13° NNE
Cosmos 1536 Rocket 3.8 17:56:02 10° SSE 18:00:18 48° E 18:04:35 10° NNE
COSMOS 2441 4.3 17:58:15 10° SSE 18:03:05 76° ENE 18:08:00 10° N
SL-24 DEB 4.3 18:00:36 10° NNE 18:05:20 61° E 18:09:58 10° S
SMAP 4.0 18:02:42 10° S 18:07:13 52° W 18:11:48 10° NNW
YAOGAN 1 3.4 18:03:10 10° S 18:07:23 53° W 18:11:39 10° NNW
SPOT 3 Rocket 4.4 18:02:28 10° S 18:07:31 53° W 18:12:37 10° NNW
ASTRO F (AKARI) 4.3 18:07:38 15° N 18:10:11 75° WNW 18:13:17 10° SSW
Cosmos 2278 Rocket 2.3 18:09:37 10° S 18:15:06 55° ESE 18:18:28 23° NE
Abrixas 3.5 18:13:05 10° WNW 18:15:44 31° N 18:15:44 31° N
OTV 4 3.2 18:17:51 10° SW 18:19:34 14° SSW 18:21:16 10° SSE
FALCON 9 R/B 4.2 17:56:55 10° WSW 18:21:12 47° S 18:26:28 20° ESE
Cosmos 1484 Rocket 2.7 18:18:52 10° S 18:22:39 80° WSW 18:26:24 10° NNW
IDEFIX/ARIANE 42P 3.9 18:19:14 10° SSW 18:24:05 40° W 18:28:59 10° NNW
Genesis I 3.9 18:22:57 10° NNW 18:25:59 36° NNE 18:25:59 36° NNE
SKYMED 2 3.4 18:23:25 16° NNE 18:26:53 85° ESE 18:31:13 10° SSW
Cosmos 2366 rocket 4.4 18:22:39 10° NNW 18:28:59 68° W 18:35:13 10° S
Cosmos 1455 Rocket 3.6 18:24:49 10° NNW 18:29:09 58° W 18:33:29 10° S
BREEZE M DEB (TANK) 3.0 18:24:17 10° SW 18:31:59 45° SSE 18:32:37 41° ESE
USA 234 4.0 18:32:50 21° NE 18:36:46 43° NNW 18:42:51 10° W
Cosmos 2082 Rocket 2.4 18:33:40 10° NNW 18:39:07 46° ENE 18:39:41 45° ENE
Timation 2 Rocket 4.2 18:33:53 10° NNW 18:40:36 59° ENE 18:44:53 24° SE
Cosmos 1934 Rocket 4.4 18:36:59 10° N 18:50:54 - SSE 18:41:47 38° NE
Cosmos 1833 Rocket 3.0 18:39:34 10° NNW 18:44:32 43° NE 18:44:32 43° NE
Cosmos 1500 3.4 18:42:30 10° NNW 18:46:19 68° W 18:50:07 10° S
SL-8 R/B 3.7 18:42:00 10° SW 18:46:43 62° SSE 18:47:02 60° SE
NOSS 3-4 (A) 4.3 18:40:32 10° NNW 18:46:51 36° NE 18:47:19 36° NE
NOSS 3-4 (C) 4.3 18:40:39 10° NNW 18:46:58 36° NE 18:47:24 36° NE
Okean 1 4.0 18:44:01 10° SSW 18:47:59 54° W 18:50:17 23° N
BREEZE M DEB (TANK) 3.4 18:44:57 10° WNW 18:48:33 61° NNE 18:50:35 43° E
Meteor 1-28 Rocket 3.4 18:50:05 64° SSW 18:50:05 64° SSW 18:53:20 10° SSW
NOSS 3-3 (A) 3.9 18:48:32 10° SW 18:54:44 89° SE 18:57:10 42° NE
NOSS 3-3 (C) 3.9 18:48:38 10° SSW 18:54:50 88° SE 18:57:14 43° NE
ISS -1.6 18:52:17 10° W 18:54:30 30° WNW 18:54:30 30° WNW
Cosmos 2239 Rocket 4.3 18:49:53 10° N 18:56:06 67° E 19:02:13 10° SSE
NOAA 12 4.1 18:52:10 10° SSE 18:57:27 82° WSW 19:02:45 10° NNW
METEOR-M 4.0 18:53:09 10° SSE 18:58:29 86° ENE 19:03:52 10° NNW
ATLAS 2AS CENTAUR R/B 3.8 18:54:49 10° NW 19:02:29 49° WSW 19:09:37 10° S
Cosmos 1821 Rocket 3.8 18:58:24 10° N 19:04:32 74° E 19:10:36 10° SSE
Cosmos 1346 Rocket 3.7 19:04:59 10° SSW 19:08:21 46° W 19:08:21 46° W
COSMO-SKYMED 1 4.3 19:12:01 16° NNW 19:14:46 30° WNW 19:18:33 10° SW
CZ-3B DEB 3.2 19:16:11 10° WSW 19:21:02 59° NNW 19:24:12 40° NE
SL-24 R/B - RUBIN 2 4.4 19:23:23 10° SW 19:29:43 87° WNW 19:29:43 87° WNW
Cosmos 2297 4.3 19:36:57 10° SW 19:41:27 52° WSW 19:41:27 52° WSW
Cosmos 2278 Rocket 4.0 19:54:53 10° WSW 19:59:32 26° NW 20:00:22 25° NW
Cosmos 2082 Rocket 4.1 20:18:15 10° NW 20:21:38 25° W 20:21:38 25° W
